STARLINK-34297

Satellite information

Favourite Embed

Satellite Type and Status

PAYLOADIN ORBIT

Key statistics

Satellite STARLINK-34297 at a glance.

Uptime

192

Days in orbit

Revolutions

≈ 15.3

Per day

Orbit

LEO

Low Earth Orbit

Inclination

53.2

Latest

Satellite identification and parameters

Extended collection of information and parameters for STARLINK-34297.

Object identification

Identified? True

Debris? False

Object name: STARLINK-34297

International designator: 2025-120F

Object number (NORAD): 64261

Object ID (CCSDS): 64261

Country: UNITED STATES OF AMERICA (US)

Current information (Y/N): Y

RCS size: LARGE

Orbital parameters

Period: 94.104 minutes

Inclination: 53.161 deg

SMA: 6853.279 km

Apoapsis: 475.859 km

Periapsis: 474.429 km

RAAN: 162.9855 deg

Eccentricy: 0.0001043

Argument of periapsis: 83.0818 deg

Mean anomaly: 277.0302 deg

Mean motion: 15.30224576 rev/day

Mean motion (dot): 0.00033866 rev/day2

B* drag term: 0.0011494794 1/REarth

Two-line elements (TLE)

Creation date: Dec. 12, 2025, 10:14 a.m.

Reference frame: TEME

Reference center: EARTH

Epoch: Dec. 12, 2025, 5:08 a.m. UTC

TLE line 0: 0 STARLINK-34297

TLE line 1: 1 64261U 25120F 25346.21438693 .00033866 00000-0 11495-2 0 9993

TLE line 2: 2 64261 53.1610 162.9855 0001043 83.0818 277.0302 15.30224576 30424

Live tracking on map

Real-time ground track for satellite STARLINK-34297.

In-orbit conjunctions

There are no conjunctions computed for STARLINK-34297, at the moment. Check back to stay up to date, as we update our databases every day.

Go to all conjunctions

Associated space launch

A batch of 27 satellites for the Starlink mega-constellation - SpaceX's project for space-based Internet communication system.

STARLINK-34297 was lifted into orbit during the mission ‘Falcon 9 Block 5 | Starlink Group 11-22’, on board a Falcon 9 space rocket.

The launch took place on June 4, 2025, 11:40 p.m. from Space Launch Complex 4E.

For more information about the launch, click the button.

Launch to space Falcon 9 Block 5 | Starlink Group 11-22
Falcon 9 Block 5 | Starlink Group 11-22

Agency: SpaceX

Status: Launch Successful

Launch date: June 4, 2025, 11:40 p.m. UTC

Rocket: Falcon 9

Launch pad: Space Launch Complex 4E

Location: Vandenberg SFB, CA, USA

...

Latest news about this satellite

News about space launch
Live coverage: SpaceX to launch 50th Starlink mission of 2025 on Wednesday afternoon Falcon 9 flight from California

The Starlink 11-22 mission is SpaceX’s 68th launch of the year. Teams are targeting liftoff from pad 4 East at Vandenberg Space Force Base at 4:28 p.m. PDT (7:28 p.m. EDT, 2338 UTC).

News about space launch
Launch Roundup: Falcon 9 to launch crewed mission, Rocket Lab to launch 65th Electron

SpaceX continues to dominate the launch manifest with five missions this week, including a crewed… The post Launch Roundup: Falcon 9 to launch crewed mission, Rocket Lab to launch 65th Electron appeared first on NASASpaceFlight.com.


Newsletter sign-up

Weekly statistics, charts and insights to help you stay on top of the space industry.